Gainesville, GA

9:50 PM EST on December 08, 2019 (GMT -0500)
Gilmer Memorial

Weather History for KGVL - November, 2019

Change the Weather History Date:

Monday, November 11, 2019

  Actual Average Record
Temperature  
Mean Temperature 53 °F 54 °F  
Max Temperature 66 °F 64 °F 78 °F (1931)
Min Temperature 40 °F 45 °F 24 °F (1941)
Degree Days  
Heating Degree Days 12 11  
Month to date heating degree days 155 106  
Since 1 July heating degree days 235 264  
Growing Degree Days 2 (Base 50)    
Moisture  
Dew Point 45 °F    
Average Humidity 74    
Maximum Humidity 100    
Minimum Humidity 48    
Precipitation  
Precipitation T in 0.13 in 1.25 in (2002)
Month to date precipitation 0.50 1.31  
Year to date precipitation 42.60 46.32  
Snow  
Snow 0.00 in - - ()
Month to date snowfall 0.0  
Since 1 July snowfall 0.0  
Since 1 September snowfall 0.0  
Snow Depth 0.00 in    
Sea Level Pressure  
Sea Level Pressure 30.10 in    
Wind  
Wind Speed 6 mph (WSW)    
Max Wind Speed 15 mph    
Max Gust Speed 21 mph    
Visibility 10 miles    
Events      
T = Trace of Precipitation, MM = Missing Value Source: NWS Daily Summary

Daily Weather History Graph

Daily Weather History Graph

Search for Another Location

Airport or City:

Astronomy

Nov. 11, 2019 Rise Set
Actual Time 7:04 AM EST 5:33 PM EST
Civil Twilight 6:37 AM EST 6:00 PM EST
Nautical Twilight 6:07 AM EST 6:30 PM EST
Astronomical Twilight 5:38 AM EST 7:00 PM EST
Moon 5:24 PM EST (11/11) 5:59 AM EST (11/11)
Length of Visible Light 11h 22m
Length of Day
10h 29m
Waxing Gibbous, 99% of the Moon is Illuminated
Nov 11
Waxing Gibbous
Nov 12
Full
Nov 19
Last Quarter
Nov 26
New
Dec 4
First Quarter

Hourly Weather History & Observations

Time (EST) Temp. Windchill Dew Point Humidity Pressure Visibility Wind Dir Wind Speed Gust Speed Precip Events Conditions
12:53 AM 45.0 °F 43.5 °F 45.0 °F 100% 30.15 in 7.0 mi WSW 3.5 mph - N/A   Clear
1:53 AM 45.0 °F - 45.0 °F 100% 30.14 in 8.0 mi Calm Calm - N/A   Clear
2:53 AM 45.0 °F - 45.0 °F 100% 30.13 in 10.0 mi Calm Calm - N/A   Clear
3:53 AM 44.1 °F - 44.1 °F 100% 30.12 in 10.0 mi Calm Calm - N/A   Clear
4:53 AM 43.0 °F 41.3 °F 43.0 °F 100% 30.13 in 9.0 mi NW 3.5 mph - N/A   Clear
5:53 AM 41.0 °F 38.0 °F 41.0 °F 100% 30.15 in 8.0 mi WNW 4.6 mph - N/A   Clear
6:53 AM 41.0 °F 39.0 °F 41.0 °F 100% 30.16 in 9.0 mi West 3.5 mph - N/A   Clear
7:53 AM 43.0 °F 41.3 °F 43.0 °F 100% 30.17 in 8.0 mi WNW 3.5 mph - N/A   Clear
8:53 AM 48.9 °F - 46.0 °F 90% 30.17 in 10.0 mi West 5.8 mph - N/A   Clear
9:53 AM 55.0 °F - 45.0 °F 69% 30.17 in 10.0 mi West 10.4 mph - N/A   Clear
10:53 AM 60.1 °F - 44.1 °F 55% 30.16 in 10.0 mi WSW 9.2 mph - N/A   Clear
11:53 AM 62.1 °F - 44.1 °F 52% 30.13 in 10.0 mi WSW 11.5 mph 18.4 mph N/A   Clear
12:53 PM 63.0 °F - 45.0 °F 52% 30.10 in 10.0 mi WSW 13.8 mph - N/A   Clear
1:53 PM 64.0 °F - 45.0 °F 50% 30.07 in 10.0 mi West 12.7 mph - N/A   Clear
2:53 PM 64.0 °F - 46.0 °F 52% 30.06 in 10.0 mi Variable 5.8 mph - N/A   Clear
3:53 PM 64.9 °F - 44.1 °F 47% 30.04 in 10.0 mi WSW 9.2 mph - N/A   Clear
4:53 PM 63.0 °F - 45.0 °F 52% 30.04 in 10.0 mi SW 5.8 mph - N/A   Clear
5:53 PM 60.1 °F - 45.0 °F 57% 30.04 in 10.0 mi SW 4.6 mph - N/A   Clear
6:53 PM 59.0 °F - 44.1 °F 58% 30.04 in 10.0 mi SSW 5.8 mph - N/A   Clear
7:53 PM 57.0 °F - 45.0 °F 64% 30.05 in 10.0 mi SW 3.5 mph - N/A   Clear
8:53 PM 57.9 °F - 46.0 °F 65% 30.04 in 10.0 mi SW 3.5 mph - N/A   Mostly Cloudy
10:53 PM 57.0 °F - 48.0 °F 72% 30.01 in 10.0 mi SW 4.6 mph - 0.00 in   Overcast
11:53 PM 57.0 °F - 48.9 °F 74% 30.00 in 10.0 mi SW 5.8 mph - N/A   Overcast